TimeEST,TemperatureF,Dew PointF,Humidity,Sea Level PressureIn,VisibilityMPH,Wind Direction,Wind SpeedMPH,Gust SpeedMPH,PrecipitationIn,Events,Conditions,WindDirDegrees,DateUTC
12:48 AM,62.6,62.6,100,30.15,6.0,Calm,Calm,-,N/A,,Overcast,0,2013-11-23 05:48:00
12:58 AM,62.6,62.6,100,30.16,1.8,Calm,Calm,-,N/A,,Overcast,0,2013-11-23 05:58:00
1:13 AM,62.6,62.6,100,30.14,1.0,Calm,Calm,-,N/A,,Mist,0,2013-11-23 06:13:00
1:18 AM,62.6,62.6,100,30.14,0.8,Calm,Calm,-,N/A,,Mist,0,2013-11-23 06:18:00
1:28 AM,62.6,62.6,100,30.13,0.5,Calm,Calm,-,N/A,Fog,Fog,0,2013-11-23 06:28:00
1:48 AM,62.6,62.6,100,30.13,1.0,South,2.3,-,N/A,,Mostly Cloudy,180,2013-11-23 06:48:00
1:53 AM,62.6,62.6,100,30.13,1.5,Calm,Calm,-,N/A,,Mostly Cloudy,0,2013-11-23 06:53:00
1:58 AM,62.6,62.6,100,30.14,1.2,Calm,Calm,-,N/A,,Mostly Cloudy,0,2013-11-23 06:58:00
2:03 AM,62.6,62.6,100,30.13,0.8,Calm,Calm,-,N/A,,Mostly Cloudy,0,2013-11-23 07:03:00
2:08 AM,62.6,62.6,100,30.13,0.5,Calm,Calm,-,N/A,Fog,Fog,0,2013-11-23 07:08:00
2:38 AM,60.8,60.8,100,30.12,0.5,Calm,Calm,-,N/A,Fog,Fog,0,2013-11-23 07:38:00
2:58 AM,60.8,60.8,100,30.13,0.5,Calm,Calm,-,N/A,Fog,Fog,0,2013-11-23 07:58:00
3:03 AM,60.8,60.8,100,30.12,0.8,Calm,Calm,-,N/A,,Overcast,0,2013-11-23 08:03:00
3:08 AM,60.8,60.8,100,30.12,1.5,Calm,Calm,-,N/A,,Overcast,0,2013-11-23 08:08:00
3:18 AM,60.8,60.8,100,30.11,1.0,Calm,Calm,-,N/A,,Mostly Cloudy,0,2013-11-23 08:18:00
3:23 AM,60.8,60.8,100,30.11,0.8,Calm,Calm,-,N/A,,Scattered Clouds,0,2013-11-23 08:23:00
3:58 AM,60.1,60.1,100,30.11,0.5,Calm,Calm,-,N/A,Fog,Fog,0,2013-11-23 08:58:00
4:58 AM,58.8,58.8,100,30.12,0.5,Calm,Calm,-,0.01,Fog,Fog,0,2013-11-23 09:58:00
5:08 AM,59.0,59.0,100,30.11,1.2,Calm,Calm,-,N/A,,Clear,0,2013-11-23 10:08:00
5:18 AM,59.0,59.0,100,30.11,1.0,Calm,Calm,-,N/A,,Partly Cloudy,0,2013-11-23 10:18:00
5:28 AM,59.0,59.0,100,30.10,1.5,Calm,Calm,-,N/A,,Mostly Cloudy,0,2013-11-23 10:28:00
5:33 AM,59.0,59.0,100,30.10,2.0,Calm,Calm,-,N/A,,Mostly Cloudy,0,2013-11-23 10:33:00
5:43 AM,59.0,59.0,100,30.10,5.0,Calm,Calm,-,N/A,,Overcast,0,2013-11-23 10:43:00
5:48 AM,59.0,59.0,100,30.10,8.0,Calm,Calm,-,N/A,,Overcast,0,2013-11-23 10:48:00
5:53 AM,59.0,59.0,100,30.10,10.0,Calm,Calm,-,N/A,,Overcast,0,2013-11-23 10:53:00
5:58 AM,58.6,58.6,100,30.11,10.0,Calm,Calm,-,N/A,,Overcast,0,2013-11-23 10:58:00
6:08 AM,59.0,59.0,100,30.11,6.0,Calm,Calm,-,N/A,,Overcast,0,2013-11-23 11:08:00
6:23 AM,59.0,59.0,100,30.11,10.0,Calm,Calm,-,N/A,,Overcast,0,2013-11-23 11:23:00
6:58 AM,59.0,59.0,100,30.12,9.0,Calm,Calm,-,N/A,,Overcast,0,2013-11-23 11:58:00
7:58 AM,60.3,60.3,100,30.13,10.0,Calm,Calm,-,N/A,,Overcast,0,2013-11-23 12:58:00
8:58 AM,64.8,64.6,99,30.14,10.0,West,5.8,-,N/A,,Mostly Cloudy,280,2013-11-23 13:58:00
9:58 AM,67.5,67.5,100,30.13,10.0,West,8.1,-,N/A,,Partly Cloudy,270,2013-11-23 14:58:00
10:58 AM,70.7,70.7,100,30.11,10.0,West,9.2,-,N/A,,Mostly Cloudy,260,2013-11-23 15:58:00
11:23 AM,71.6,71.6,100,30.10,10.0,WSW,10.4,-,N/A,,Overcast,240,2013-11-23 16:23:00
11:58 AM,72.3,71.4,97,30.09,10.0,West,10.4,-,N/A,,Overcast,280,2013-11-23 16:58:00
12:28 PM,71.6,71.6,100,30.06,10.0,West,11.5,-,N/A,,Overcast,260,2013-11-23 17:28:00
12:48 PM,71.6,71.6,100,30.05,10.0,WSW,10.4,-,N/A,Rain,Light Rain,240,2013-11-23 17:48:00
12:58 PM,70.7,70.7,100,30.06,9.0,West,6.9,-,0.00,Rain,Light Rain,260,2013-11-23 17:58:00
1:00 PM,69.8,69.8,100,30.05,10.0,West,6.9,-,N/A,,Overcast,260,2013-11-23 18:00:00
1:03 PM,69.8,69.8,100,30.05,10.0,West,6.9,-,N/A,,Light Drizzle,270,2013-11-23 18:03:00
1:08 PM,69.8,69.8,100,30.05,6.0,West,8.1,-,N/A,Rain,Rain,260,2013-11-23 18:08:00
1:18 PM,69.8,69.8,100,30.04,9.0,West,8.1,-,N/A,Rain,Light Rain,280,2013-11-23 18:18:00
1:23 PM,69.8,69.8,100,30.04,10.0,West,9.2,-,N/A,Rain,Light Rain,260,2013-11-23 18:23:00
1:28 PM,69.8,69.8,100,30.04,10.0,West,8.1,-,N/A,Rain,Light Rain,260,2013-11-23 18:28:00
1:33 PM,69.8,69.8,100,30.04,10.0,West,5.8,-,N/A,,Overcast,260,2013-11-23 18:33:00
1:37 PM,69.8,69.8,100,30.04,10.0,WSW,5.8,-,N/A,,Light Drizzle,250,2013-11-23 18:37:00
1:42 PM,69.8,69.8,100,30.03,10.0,WSW,5.8,-,N/A,,Light Drizzle,250,2013-11-23 18:42:00
1:47 PM,69.8,69.8,100,30.03,10.0,WSW,5.8,-,N/A,,Overcast,240,2013-11-23 18:47:00
1:58 PM,69.8,69.8,100,30.03,10.0,WSW,6.9,-,0.00,,Overcast,240,2013-11-23 18:58:00
2:23 PM,69.8,69.8,100,30.02,10.0,West,5.8,-,N/A,,Overcast,270,2013-11-23 19:23:00
2:58 PM,70.5,70.5,100,30.03,10.0,West,6.9,-,N/A,,Overcast,260,2013-11-23 19:58:00
3:08 PM,69.8,69.8,100,30.02,10.0,West,8.1,-,N/A,,Overcast,270,2013-11-23 20:08:00
3:18 PM,69.8,69.8,100,30.02,10.0,WNW,10.4,-,N/A,,Overcast,290,2013-11-23 20:18:00
3:23 PM,69.8,69.8,100,30.02,10.0,WNW,9.2,-,N/A,,Overcast,290,2013-11-23 20:23:00
3:33 PM,69.8,69.8,100,30.02,10.0,NW,8.1,-,N/A,,Overcast,310,2013-11-23 20:33:00
3:38 PM,69.8,69.8,100,30.03,10.0,NW,9.2,-,N/A,,Overcast,320,2013-11-23 20:38:00
3:43 PM,69.8,69.8,100,30.03,10.0,WNW,8.1,-,N/A,,Overcast,300,2013-11-23 20:43:00
3:58 PM,69.6,69.1,98,30.04,10.0,WNW,10.4,-,N/A,,Overcast,300,2013-11-23 20:58:00
4:58 PM,68.2,67.3,97,30.04,10.0,WNW,5.8,-,N/A,,Overcast,300,2013-11-23 21:58:00
5:58 PM,65.8,64.9,97,30.07,10.0,WNW,6.9,-,N/A,,Overcast,300,2013-11-23 22:58:00
6:13 PM,64.4,64.4,100,30.06,10.0,WNW,5.8,-,N/A,,Overcast,300,2013-11-23 23:13:00
6:58 PM,63.7,63.7,100,30.08,10.0,WNW,4.6,-,N/A,,Mostly Cloudy,300,2013-11-23 23:58:00
7:43 PM,62.6,62.6,100,30.08,10.0,NW,3.5,-,N/A,,Overcast,310,2013-11-24 00:43:00
7:58 PM,63.3,63.3,100,30.09,10.0,NW,3.5,-,N/A,,Overcast,310,2013-11-24 00:58:00
8:18 PM,62.6,62.6,100,30.08,10.0,NW,4.6,-,N/A,,Mostly Cloudy,310,2013-11-24 01:18:00
8:23 PM,62.6,62.6,100,30.08,10.0,Calm,Calm,-,N/A,,Mostly Cloudy,0,2013-11-24 01:23:00
8:33 PM,62.6,62.6,100,30.08,10.0,Calm,Calm,-,N/A,,Scattered Clouds,0,2013-11-24 01:33:00
8:58 PM,61.3,61.3,100,30.09,10.0,Calm,Calm,-,N/A,,Clear,0,2013-11-24 01:58:00
9:28 PM,60.8,60.8,100,30.09,10.0,NW,1.2,-,N/A,,Mostly Cloudy,310,2013-11-24 02:28:00
9:33 PM,60.8,60.8,100,30.08,10.0,NW,1.2,-,N/A,,Scattered Clouds,320,2013-11-24 02:33:00
9:58 PM,60.3,60.3,100,30.09,10.0,Calm,Calm,-,0.01,,Scattered Clouds,0,2013-11-24 02:58:00
10:58 PM,59.4,59.4,100,30.11,10.0,WNW,4.6,-,N/A,,Scattered Clouds,300,2013-11-24 03:58:00
11:43 PM,59.0,59.0,100,30.10,10.0,NW,8.1,-,N/A,,Mostly Cloudy,320,2013-11-24 04:43:00
11:58 PM,60.8,60.8,100,30.11,10.0,NNW,6.9,-,N/A,,Overcast,330,2013-11-24 04:58:00